Location: Bijele Vode
(45.2833°N, 16.2000°E)
Time: 21:04:25
(UTC+00:00)

Cosmos 1891 Rocket - Pass Details

Date: 18 September 2020
Orbit: 934 x 1018 km, 82.9° (Epoch: 27 October)

Event Time Altitude Azimuth Distance (km) Brightness Sun altitude
Rises 18:24:11 0° 185° (S) 3,649 7.4 -15.4°
Reaches altitude 10° 18:26:42 10° 185° (S) 2,694 6.7 -15.8°
Maximum altitude 18:32:52 87° 96° (E) 958 4.4 -16.8°
Drops below altitude 10° 18:38:57 10° 9° (N) 2,666 6.9 -17.8°
Sets 18:41:26 0° 9° (N) 3,608 7.6 -18.2°
